Location: Unspecified
(0.0000°N, 0.0000°E)
Time: 20:43:51
(UTC+00:00)

ARIANE 2 DEB - Visible Passes

Search period start: 10 April 2026 00:00
Search period end: 20 April 2026 00:00
Orbit: 4274 x 35661 km, 8.4° (Epoch: 5 July)

Date Brightness Start Highest point End Pass type
(mag) Time Alt. Az. Time Alt. Az. Time Alt. Az.
10 Apr ? 21:05:31 10° W 23:19:43 56° WSW 08:05:12 10° E visible
11 Apr ? 20:40:15 10° W 22:56:01 61° WSW 07:41:54 10° E visible
12 Apr ? 20:15:20 10° W 22:31:52 67° WSW 07:18:38 10° E visible
13 Apr ? 19:50:45 10° W 22:06:58 72° WSW 06:55:21 10° E visible
14 Apr ? 19:26:24 10° W 21:40:28 77° WSW 06:32:03 10° E visible
15 Apr ? 19:02:16 10° W 21:08:51 81° SW 06:08:44 10° E visible
16 Apr ? 18:38:18 10° W 20:20:42 84° SSW 05:45:21 10° E visible
17 Apr ? 18:14:30 10° W 19:32:28 86° SSW 05:21:56 10° E visible
18 Apr ? 17:50:48 10° W 18:53:48 88° SSW 04:58:26 10° E visible
